• In Czech Republic
  • List of Countries
  • For 7 days
  • Water Temperature
  • Satellite Maps
  • Weather Map
  • Weather Widgets
  • user-avatar
    Login

    Hourly Weather Wallsend

    Today, 20 November, Monday

    Time Temperature Precipitation Wind Pressure Humidity
    00:00 +4°C° 0 mm 3 mps 758 mmHg 88%
    01:00 +4°C° 1.1 mm 4 mps 757 mmHg 90%
    02:00 +4°C° 1.1 mm 4 mps 756 mmHg 92%
    03:00 +5°C° 1.1 mm 4 mps 756 mmHg 94%
    04:00 +6°C° 0.5 mm 4 mps 755 mmHg 94%
    05:00 +7°C° 0.5 mm 5 mps 754 mmHg 94%
    06:00 +8°C° 0.5 mm 5 mps 753 mmHg 94%
    07:00 +8°C° 0.3 mm 5 mps 752 mmHg 93%
    08:00 +9°C° 0.3 mm 5 mps 752 mmHg 93%
    09:00 +10°C° 0.3 mm 5 mps 751 mmHg 92%
    10:00 +10°C° 0.4 mm 5 mps 751 mmHg 91%
    11:00 +11°C° 0.4 mm 6 mps 751 mmHg 90%
    12:00 +11°C° 0.4 mm 6 mps 750 mmHg 88%
    13:00 +11°C° 0.6 mm 6 mps 750 mmHg 88%
    14:00 +11°C° 0.6 mm 6 mps 750 mmHg 88%
    15:00 +11°C° 0.6 mm 6 mps 750 mmHg 88%
    16:00 +10°C° 0 mm 6 mps 751 mmHg 89%
    17:00 +10°C° 0 mm 5 mps 751 mmHg 90%
    18:00 +10°C° 0 mm 4 mps 751 mmHg 92%
    19:00 +10°C° 0 mm 3 mps 751 mmHg 92%
    20:00 +10°C° 0 mm 3 mps 752 mmHg 93%
    21:00 +10°C° 0 mm 2 mps 752 mmHg 94%
    22:00 +10°C° 0 mm 2 mps 752 mmHg 94%
    23:00 +10°C° 0 mm 2 mps 752 mmHg 94%

    Tomorrow, 21 November, Tuesday

    Time Temperature Precipitation Wind Pressure Humidity
    00:00 +10°C° 0 mm 2 mps 752 mmHg 95%
    01:00 +10°C° 0.2 mm 2 mps 752 mmHg 95%
    02:00 +10°C° 0.2 mm 2 mps 751 mmHg 95%
    03:00 +10°C° 0.2 mm 2 mps 751 mmHg 95%
    04:00 +10°C° 0.9 mm 3 mps 751 mmHg 95%
    05:00 +10°C° 0.9 mm 3 mps 750 mmHg 95%
    06:00 +10°C° 0.9 mm 3 mps 750 mmHg 95%
    07:00 +11°C° 0.5 mm 4 mps 749 mmHg 94%
    08:00 +12°C° 0.5 mm 4 mps 749 mmHg 93%
    09:00 +12°C° 0.5 mm 5 mps 748 mmHg 93%
    10:00 +11°C° 0.2 mm 6 mps 748 mmHg 90%
    11:00 +11°C° 0.2 mm 6 mps 748 mmHg 88%
    12:00 +11°C° 0.2 mm 7 mps 747 mmHg 85%
    13:00 +11°C° 0 mm 7 mps 746 mmHg 85%
    14:00 +11°C° 0 mm 7 mps 745 mmHg 84%
    15:00 +11°C° 0 mm 8 mps 745 mmHg 84%
    16:00 +11°C° 0.2 mm 8 mps 744 mmHg 85%
    17:00 +12°C° 0.2 mm 8 mps 743 mmHg 86%
    18:00 +12°C° 0.2 mm 8 mps 742 mmHg 87%
    19:00 +12°C° 0 mm 8 mps 742 mmHg 87%
    20:00 +12°C° 0 mm 8 mps 742 mmHg 86%
    21:00 +13°C° 0 mm 8 mps 741 mmHg 86%
    22:00 +12°C° 0.2 mm 8 mps 741 mmHg 86%
    23:00 +12°C° 0.2 mm 8 mps 741 mmHg 86%

    Day after tomorrow, 22 November, Wednesday

    Time Temperature Precipitation Wind Pressure Humidity
    00:00 +12°C° 0.2 mm 8 mps 740 mmHg 85%
    01:00 +12°C° 0 mm 8 mps 740 mmHg 85%
    02:00 +12°C° 0 mm 8 mps 740 mmHg 85%
    03:00 +12°C° 0 mm 7 mps 739 mmHg 84%
    04:00 +12°C° 0 mm 7 mps 739 mmHg 85%
    05:00 +11°C° 0 mm 6 mps 739 mmHg 86%
    06:00 +10°C° 0 mm 5 mps 740 mmHg 87%
    07:00 +11°C° 0.2 mm 4 mps 740 mmHg 87%
    08:00 +11°C° 0.2 mm 4 mps 740 mmHg 88%
    09:00 +11°C° 0.2 mm 3 mps 740 mmHg 89%
    10:00 +11°C° 2.2 mm 3 mps 739 mmHg 89%
    11:00 +11°C° 2.2 mm 4 mps 739 mmHg 89%
    12:00 +11°C° 2.2 mm 4 mps 738 mmHg 90%
    13:00 +12°C° 2.2 mm 5 mps 737 mmHg 88%
    14:00 +11°C° 2.2 mm 6 mps 736 mmHg 86%
    15:00 +11°C° 2.2 mm 8 mps 736 mmHg 85%
    16:00 +11°C° 1.3 mm 8 mps 735 mmHg 85%
    17:00 +11°C° 1.3 mm 8 mps 734 mmHg 85%
    18:00 +11°C° 1.3 mm 8 mps 733 mmHg 85%
    19:00 +11°C° 1.2 mm 8 mps 733 mmHg 86%
    20:00 +11°C° 1.2 mm 7 mps 733 mmHg 87%
    21:00 +10°C° 1.2 mm 6 mps 733 mmHg 89%
    22:00 +10°C° 0.9 mm 6 mps 733 mmHg 89%
    23:00 +9°C° 0.9 mm 6 mps 733 mmHg 90%

    23 November, Thursday

    Time Temperature Precipitation Wind Pressure Humidity
    00:00 +9°C° 0.9 mm 5 mps 734 mmHg 90%
    01:00 +9°C° 0.8 mm 5 mps 734 mmHg 90%
    02:00 +8°C° 0.8 mm 6 mps 735 mmHg 90%
    03:00 +8°C° 0.8 mm 6 mps 735 mmHg 89%
    04:00 +8°C° 0.1 mm 5 mps 736 mmHg 89%
    05:00 +7°C° 0.1 mm 4 mps 737 mmHg 89%
    06:00 +8°C° 0.1 mm 3 mps 739 mmHg 89%
    07:00 +8°C° 0 mm 3 mps 739 mmHg 88%
    08:00 +8°C° 0 mm 2 mps 740 mmHg 88%
    09:00 +8°C° 0 mm 2 mps 741 mmHg 88%
    10:00 +9°C° 0 mm 3 mps 742 mmHg 86%
    11:00 +10°C° 0 mm 4 mps 742 mmHg 85%
    12:00 +10°C° 0 mm 5 mps 742 mmHg 83%
    13:00 +11°C° 0 mm 6 mps 741 mmHg 82%
    14:00 +11°C° 0 mm 7 mps 741 mmHg 81%
    15:00 +12°C° 0 mm 8 mps 740 mmHg 79%
    16:00 +11°C° 0 mm 9 mps 740 mmHg 79%
    17:00 +11°C° 0 mm 9 mps 740 mmHg 78%
    18:00 +11°C° 0 mm 10 mps 740 mmHg 78%
    19:00 +10°C° 0 mm 9 mps 741 mmHg 77%
    20:00 +9°C° 0 mm 8 mps 742 mmHg 77%
    21:00 +9°C° 0 mm 8 mps 742 mmHg 77%
    22:00 +9°C° 0 mm 7 mps 742 mmHg 78%
    23:00 +9°C° 0 mm 7 mps 741 mmHg 80%

    24 November, Friday

    Time Temperature Precipitation Wind Pressure Humidity
    00:00 +8°C° 0 mm 6 mps 741 mmHg 82%
    01:00 +8°C° 0.1 mm 6 mps 740 mmHg 81%
    02:00 +8°C° 0.1 mm 7 mps 740 mmHg 81%
    03:00 +8°C° 0.1 mm 7 mps 740 mmHg 80%
    04:00 +7°C° 0 mm 8 mps 740 mmHg 77%
    05:00 +6°C° 0 mm 8 mps 740 mmHg 74%
    06:00 +6°C° 0 mm 9 mps 740 mmHg 71%
    07:00 +6°C° 0 mm 10 mps 741 mmHg 71%
    08:00 +6°C° 0 mm 10 mps 741 mmHg 71%
    09:00 +6°C° 0 mm 10 mps 741 mmHg 71%
    10:00 +6°C° 0 mm 11 mps 741 mmHg 70%
    11:00 +7°C° 0 mm 12 mps 741 mmHg 68%
    12:00 +7°C° 0 mm 12 mps 741 mmHg 66%
    13:00 +7°C° 0 mm 12 mps 742 mmHg 67%
    14:00 +7°C° 0 mm 12 mps 742 mmHg 68%
    15:00 +6°C° 0 mm 11 mps 742 mmHg 69%
    16:00 +4°C° 0 mm 11 mps 743 mmHg 70%
    17:00 +5°C° 0 mm 10 mps 745 mmHg 72%
    18:00 +3°C° 0 mm 9 mps 746 mmHg 73%
    19:00 +2°C° 0 mm 8 mps 747 mmHg 74%
    20:00 +3°C° 0 mm 7 mps 748 mmHg 75%
    21:00 +2°C° 0 mm 6 mps 749 mmHg 76%
    22:00 +2°C° 0 mm 5 mps 749 mmHg 76%
    23:00 +1°C° 0 mm 5 mps 750 mmHg 76%

    25 November, Saturday

    Time Temperature Precipitation Wind Pressure Humidity
    00:00 +1°C° 0 mm 4 mps 750 mmHg 76%
    01:00 +1°C° 0 mm 4 mps 751 mmHg 75%
    02:00 +1°C° 0 mm 4 mps 751 mmHg 74%
    03:00 +1°C° 0 mm 4 mps 751 mmHg 73%
    04:00 +1°C° 0 mm 4 mps 751 mmHg 72%
    05:00 +1°C° 0 mm 4 mps 751 mmHg 72%
    06:00 +1°C° 0 mm 4 mps 752 mmHg 71%
    07:00 +1°C° 0 mm 4 mps 752 mmHg 71%
    08:00 +1°C° 0 mm 4 mps 752 mmHg 71%
    09:00 +1°C° 0 mm 4 mps 752 mmHg 71%
    10:00 +2°C° 0 mm 5 mps 753 mmHg 68%
    11:00 +2°C° 0 mm 5 mps 753 mmHg 65%
    12:00 +3°C° 0 mm 6 mps 753 mmHg 62%
    13:00 +3°C° 0 mm 6 mps 753 mmHg 64%
    14:00 +2°C° 0 mm 5 mps 753 mmHg 66%
    15:00 +2°C° 0 mm 5 mps 754 mmHg 67%
    16:00 +2°C° 0 mm 5 mps 754 mmHg 69%
    17:00 +1°C° 0 mm 5 mps 755 mmHg 72%
    18:00 0°C° 0 mm 5 mps 755 mmHg 74%
    19:00 0°C° 0 mm 5 mps 756 mmHg 74%
    20:00 0°C° 0 mm 5 mps 756 mmHg 75%
    21:00 0°C° 0 mm 5 mps 757 mmHg 75%
    22:00 0°C° 0 mm 5 mps 757 mmHg 75%
    23:00 0°C° 0 mm 5 mps 757 mmHg 74%
    Show more